+ View the NASA Portal
+ Center for Near-Earth Object Studies
JPL Small-Body Database Browser
Search:
[
help
]
118071 (5062 T-2)
Classification:
Main-belt Asteroid
SPK-ID:
2118071
[
Ephemeris
|
Orbit Diagram
|
Orbital Elements
|
Mission Design
|
Physical Parameters
|
Discovery Circumstances
]
[ show orbit diagram ]
Orbital Elements at Epoch 2459200.5 (2020-Dec-17.0) TDB
Reference:
JPL 22
(heliocentric ecliptic J2000)
Element
Value
Uncertainty (1-sigma)
Units
e
.2627111634335651
7.6813e-08
a
2.524171625840569
7.5214e-09
au
q
1.86104356131
1.9636e-07
au
i
6.716923392247702
3.5011e-06
deg
node
265.345347448054
5.384e-05
deg
peri
77.11767566363989
5.412e-05
deg
M
288.0073164689261
8.0622e-06
deg
t
p
2459493.429161953444
(2021-Oct-05.92916195)
3.3726e-05
TDB
period
1464.794658720047
4.01
6.5471e-06
1.792e-08
d
yr
n
.245768236426102
1.0985e-09
deg/d
Q
3.187299690371138
9.4974e-09
au
Orbit Determination Parameters
# obs. used (total)
790
data-arc span
17036 days (46.64 yr)
first obs. used
1973-09-19
last obs. used
2020-05-11
planetary ephem.
DE431
SB-pert. ephem.
SB431-N16
condition code
0
norm. resid. RMS
.52161
source
ORB
producer
Otto Matic
solution date
2020-Nov-12 18:14:18
Additional Information
Earth MOID
= .865148 au
Jupiter MOID
= 2.2829 au
T_jup
= 3.396
[ show covariance matrix ]
[
Ephemeris
|
Orbit Diagram
|
Orbital Elements
|
Mission Design
|
Physical Parameters
|
Discovery Circumstances
]
Physical Parameter Table
Parameter
Symbol
Value
Units
Sigma
Reference
Notes
absolute magnitude
H
15.91
n/a
E2021B55
118071 (5062 T-2)
Discovered 1973-Sep-25 by van Houten, C. J., van Houten-Groeneveld, I., Gehrels, T. at Palomar
Reference:
20051019/Numbers.arc
Last Updated:
2005-10-26
Alternate Designations
5062 T-2
= 2001 OR6
[
Ephemeris
|
Orbit Diagram
|
Orbital Elements
|
Mission Design
|
Physical Parameters
|
Discovery Circumstances
]
2021-Apr-10 21:52 UT
(server date/time)
Site Manager:
Ryan S. Park
Webmaster
:
Alan B. Chamberlin